Change the Weather History Date:

Thursday, April 26, 2012

  Actual Average (KLNR) Record (KLNR)
Temperature  
Mean Temperature 52 °F -  
Max Temperature 59 °F 61 °F 79 °F (2001)
Min Temperature 42 °F 38 °F 27 °F (2006)
Degree Days  
Heating Degree Days 14    
Growing Degree Days 2 (Base 50)    
Moisture  
Dew Point 33 °F    
Average Humidity 57    
Maximum Humidity 93    
Minimum Humidity 26    
Precipitation  
Precipitation 0.00 in - - ()
Sea Level Pressure  
Sea Level Pressure 29.95 in    
Wind  
Wind Speed 8 mph (North)    
Max Wind Speed 21 mph    
Max Gust Speed 28 mph    
Visibility 8 miles    
Events      
Averages and records for this station are not official NWS values.
T = Trace of Precipitation, MM = Missing Value Source: NWS Daily Summary

Daily Weather History Graph

Daily Weather History Graph

Search for Another Location

Airport or City:

Trip Planner

Search our weather history database for the weather conditions in past years. The results will help you decide how hot, cold, wet, or windy it might be!

Date:

Astronomy

Apr. 26, 2012 Rise Set
Actual Time 6:01 AM CDT 7:56 PM CDT
Civil Twilight 5:30 AM CDT 8:27 PM CDT
Nautical Twilight 4:53 AM CDT 9:04 PM CDT
Astronomical Twilight 4:13 AM CDT 9:45 PM CDT
Moon 9:37 AM CDT (4/26) 12:05 AM CDT (4/26)
Length of Visible Light 14h 56m
Length of Day
13h 55m
Waxing Crescent, 24% of the Moon is Illuminated
Apr 26
Waxing Crescent
Apr 29
First Quarter
May 5
Full
May 12
Last Quarter
May 20
New

Hourly Weather History & Observations

Time (CDT) Temp. Windchill Dew Point Humidity Pressure Visibility Wind Dir Wind Speed Gust Speed Precip Events Conditions
12:15 AM 50.0 °F - 46.4 °F 87% 29.70 in 4.0 mi North 5.8 mph - N/A   Clear
12:55 AM 48.2 °F - 44.6 °F 87% 29.70 in 3.0 mi Calm Calm - N/A   Clear
1:15 AM 48.2 °F - 44.6 °F 87% 29.70 in 4.0 mi Calm Calm - N/A   Clear
1:35 AM 46.4 °F - 44.6 °F 93% 29.70 in 3.0 mi Calm Calm - N/A   Clear
1:55 AM 46.4 °F - 44.6 °F 93% 29.71 in 2.5 mi Calm Calm - N/A   Clear
2:15 AM 46.4 °F - 44.6 °F 93% 29.71 in 2.0 mi Calm Calm - N/A   Clear
2:35 AM 46.4 °F - 44.6 °F 93% 29.71 in 1.8 mi Calm Calm - N/A   Mist
2:55 AM 44.6 °F 43.1 °F 42.8 °F 93% 29.72 in 1.0 mi NNW 3.5 mph - N/A   Mist
3:15 AM 44.6 °F 41.4 °F 42.8 °F 93% 29.73 in 1.5 mi NNW 5.8 mph - N/A   Mist
3:35 AM 44.6 °F 41.4 °F 42.8 °F 93% 29.75 in 1.8 mi NNW 5.8 mph - N/A   Mist
3:55 AM 46.4 °F 42.9 °F 42.8 °F 87% 29.77 in 2.0 mi NNW 6.9 mph - N/A   Clear
4:15 AM 46.4 °F 42.9 °F 42.8 °F 87% 29.77 in 1.5 mi NNW 6.9 mph - N/A   Mist
4:35 AM 46.4 °F 42.9 °F 42.8 °F 87% 29.77 in 1.8 mi NNW 6.9 mph - N/A   Mist
4:55 AM 46.4 °F 41.9 °F 44.6 °F 93% 29.77 in 3.0 mi NNW 9.2 mph - N/A   Clear
5:15 AM 46.4 °F 42.4 °F 44.6 °F 93% 29.78 in 4.0 mi North 8.1 mph - N/A   Clear
5:35 AM 46.4 °F 41.5 °F 44.6 °F 93% 29.79 in 4.0 mi North 10.4 mph - N/A   Clear
5:55 AM 46.4 °F 41.1 °F 44.6 °F 93% 29.80 in 3.0 mi North 11.5 mph 16.1 mph N/A   Clear
6:15 AM 46.4 °F 41.5 °F 42.8 °F 87% 29.81 in 5.0 mi North 10.4 mph - N/A   Clear
6:55 AM 48.2 °F - 42.8 °F 82% 29.83 in 7.0 mi North 12.7 mph 16.1 mph N/A   Scattered Clouds
7:15 AM 50.0 °F - 42.8 °F 76% 29.85 in 10.0 mi North 12.7 mph 17.3 mph N/A   Mostly Cloudy
7:35 AM 48.2 °F - 42.8 °F 82% 29.87 in 10.0 mi North 15.0 mph 23.0 mph N/A   Overcast
7:55 AM 48.2 °F - 42.8 °F 82% 29.88 in 10.0 mi North 12.7 mph 19.6 mph N/A   Overcast
8:15 AM 48.2 °F - 41.0 °F 76% 29.89 in 10.0 mi NNW 16.1 mph 25.3 mph N/A   Overcast
8:35 AM 50.0 °F - 41.0 °F 71% 29.91 in 10.0 mi North 15.0 mph 19.6 mph N/A   Overcast
8:55 AM 50.0 °F - 39.2 °F 66% 29.92 in 10.0 mi North 15.0 mph 26.5 mph N/A   Overcast
9:15 AM 51.8 °F - 41.0 °F 67% 29.92 in 10.0 mi North 16.1 mph 25.3 mph N/A   Overcast
9:55 AM 50.0 °F - 37.4 °F 62% 29.94 in 10.0 mi North 16.1 mph 25.3 mph N/A   Overcast
10:15 AM 51.8 °F - 37.4 °F 58% 29.95 in 10.0 mi North 16.1 mph 23.0 mph N/A   Mostly Cloudy
10:35 AM 51.8 °F - 35.6 °F 54% 29.96 in 10.0 mi North 19.6 mph 27.6 mph N/A   Mostly Cloudy
10:55 AM 53.6 °F - 35.6 °F 51% 29.97 in 10.0 mi NNW 20.7 mph 27.6 mph N/A   Mostly Cloudy
11:15 AM 53.6 °F - 33.8 °F 47% 29.97 in 10.0 mi North 15.0 mph 23.0 mph N/A   Scattered Clouds
11:35 AM 55.4 °F - 33.8 °F 44% 29.97 in 10.0 mi North 17.3 mph 24.2 mph N/A   Scattered Clouds
11:55 AM 55.4 °F - 33.8 °F 44% 29.99 in 10.0 mi North 16.1 mph 23.0 mph N/A   Scattered Clouds
12:15 PM 55.4 °F - 32.0 °F 41% 30.00 in 10.0 mi North 15.0 mph 20.7 mph N/A   Scattered Clouds
12:35 PM 55.4 °F - 32.0 °F 41% 29.99 in 10.0 mi North 12.7 mph 19.6 mph N/A   Scattered Clouds
12:55 PM 55.4 °F - 32.0 °F 41% 30.00 in 10.0 mi NNW 10.4 mph 17.3 mph N/A   Scattered Clouds
1:15 PM 55.4 °F - 32.0 °F 41% 30.01 in 10.0 mi North 15.0 mph 19.6 mph N/A   Mostly Cloudy
1:35 PM 57.2 °F - 30.2 °F 36% 30.02 in 10.0 mi North 12.7 mph 19.6 mph N/A   Mostly Cloudy
1:55 PM 57.2 °F - 28.4 °F 33% 30.04 in 10.0 mi North 19.6 mph 24.2 mph N/A   Scattered Clouds
2:15 PM 57.2 °F - 28.4 °F 33% 30.04 in 10.0 mi North 13.8 mph 17.3 mph N/A   Scattered Clouds
2:35 PM 59.0 °F - 28.4 °F 31% 30.04 in 10.0 mi North 12.7 mph 20.7 mph N/A   Clear
2:55 PM 59.0 °F - 28.4 °F 31% 30.05 in 10.0 mi North 15.0 mph - N/A   Scattered Clouds
3:15 PM 57.2 °F - 26.6 °F 31% 30.04 in 10.0 mi NNE 10.4 mph 21.9 mph N/A   Clear
3:55 PM 57.2 °F - 24.8 °F 29% 30.05 in 10.0 mi North 11.5 mph 18.4 mph N/A   Clear
4:35 PM 57.2 °F - 26.6 °F 31% 30.05 in 10.0 mi North 9.2 mph 18.4 mph N/A   Clear
4:55 PM 57.2 °F - 23.0 °F 27% 30.05 in 10.0 mi North 11.5 mph 16.1 mph N/A   Clear
5:15 PM 55.4 °F - 21.2 °F 26% 30.06 in 10.0 mi North 9.2 mph 16.1 mph N/A   Clear
5:35 PM 55.4 °F - 21.2 °F 26% 30.07 in 10.0 mi North 8.1 mph - N/A   Clear
5:55 PM 55.4 °F - 21.2 °F 26% 30.08 in 10.0 mi NNE 12.7 mph - N/A   Clear
6:15 PM 55.4 °F - 21.2 °F 26% 30.08 in 10.0 mi North 6.9 mph - N/A   Clear
6:55 PM 53.6 °F - 21.2 °F 28% 30.09 in 10.0 mi North 9.2 mph - N/A   Clear
7:15 PM 51.8 °F - 19.4 °F 28% 30.10 in 10.0 mi North 6.9 mph - N/A   Clear
7:35 PM 51.8 °F - 19.4 °F 28% 30.11 in 10.0 mi North 6.9 mph - N/A   Clear
7:55 PM 50.0 °F - 21.2 °F 32% 30.10 in 10.0 mi North 6.9 mph - N/A   Clear
8:15 PM 46.4 °F 42.9 °F 21.2 °F 37% 30.12 in 10.0 mi North 6.9 mph - N/A   Clear
8:35 PM 46.4 °F 42.4 °F 19.4 °F 34% 30.12 in 10.0 mi NNE 8.1 mph - N/A   Clear
8:55 PM 46.4 °F 42.9 °F 21.2 °F 37% 30.12 in 10.0 mi NNE 6.9 mph - N/A   Clear
9:15 PM 46.4 °F 42.9 °F 21.2 °F 37% 30.12 in 10.0 mi NE 6.9 mph - N/A   Clear
9:35 PM 46.4 °F 43.5 °F 21.2 °F 37% 30.13 in 10.0 mi NE 5.8 mph - N/A   Clear
9:55 PM 44.6 °F 40.7 °F 21.2 °F 39% 30.14 in 10.0 mi NNE 6.9 mph - N/A   Clear
10:15 PM 44.6 °F 40.7 °F 23.0 °F 43% 30.14 in 10.0 mi NNE 6.9 mph - N/A   Clear
10:35 PM 44.6 °F 40.2 °F 23.0 °F 43% 30.14 in 10.0 mi NE 8.1 mph - N/A   Clear
11:15 PM 44.6 °F 41.4 °F 23.0 °F 43% 30.14 in 10.0 mi NE 5.8 mph - N/A   Clear
11:35 PM 42.8 °F 39.3 °F 23.0 °F 46% 30.14 in 10.0 mi NE 5.8 mph - N/A   Clear